PBD1053 UWUU-UWGG

Flight info

Callsign PBD1053
Flight time 1h 14m
Altitude 34000
Route TILMU N985 ORTIM L158 KOKAD N604 PESAB
Aircraft B738/M-S/L

Departure

Time 2026-05-08 20:01
Airport Ufa International Airport (UWUU)

Arrival

Time 2026-05-08 21:16
Airport Nizhny Novgorod / Strigino International Airport (UWGG)
Time Latitude Longitude Altitude Speed Heading
2026-05-08 19:33 54.56251 55.88538 458 ft 0 kts 60°
2026-05-08 19:45 54.56251 55.88536 458 ft 1 kts 60°
2026-05-08 19:45 54.56244 55.88514 458 ft 2 kts 60°
2026-05-08 19:45 54.56238 55.88496 458 ft 2 kts 60°
2026-05-08 19:46 54.56229 55.88471 458 ft 2 kts 59°
2026-05-08 19:46 54.56226 55.88445 458 ft 2 kts 100°
2026-05-08 19:46 54.56238 55.88412 458 ft 1 kts 153°
2026-05-08 19:47 54.56244 55.88408 458 ft 0 kts 153°
2026-05-08 19:48 54.56242 55.88409 458 ft 1 kts 160°
2026-05-08 19:49 54.56237 55.88370 458 ft 8 kts 337°
2026-05-08 19:49 54.56279 55.88370 458 ft 4 kts 342°
2026-05-08 19:49 54.56301 55.88354 458 ft 3 kts 335°
2026-05-08 19:49 54.56328 55.88332 458 ft 6 kts 332°
2026-05-08 19:50 54.56379 55.88282 458 ft 11 kts 330°
2026-05-08 19:50 54.56416 55.88240 458 ft 6 kts 312°
2026-05-08 19:50 54.56419 55.88172 458 ft 5 kts 252°
2026-05-08 19:50 54.56413 55.88148 458 ft 0 kts 245°
2026-05-08 19:52 54.56413 55.88147 458 ft 0 kts 242°
2026-05-08 19:54 54.56411 55.88140 458 ft 2 kts 242°
2026-05-08 19:55 54.56386 55.88062 458 ft 13 kts 241°
2026-05-08 19:55 54.56322 55.87869 458 ft 23 kts 239°
2026-05-08 19:55 54.56222 55.87577 458 ft 32 kts 242°
2026-05-08 19:55 54.56119 55.87260 458 ft 27 kts 244°
2026-05-08 19:56 54.56031 55.86982 458 ft 24 kts 239°
2026-05-08 19:56 54.55948 55.86740 458 ft 22 kts 240°
2026-05-08 19:56 54.55878 55.86521 458 ft 19 kts 243°
2026-05-08 19:56 54.55868 55.86332 458 ft 16 kts 331°
2026-05-08 19:57 54.55983 55.86221 458 ft 23 kts 330°
2026-05-08 19:57 54.56158 55.86048 458 ft 33 kts 332°
2026-05-08 19:57 54.56394 55.85822 458 ft 42 kts 330°
2026-05-08 19:57 54.56637 55.85590 458 ft 37 kts 332°
2026-05-08 19:58 54.56849 55.85376 458 ft 32 kts 332°
2026-05-08 19:58 54.57034 55.85200 458 ft 29 kts 331°
2026-05-08 19:58 54.57211 55.85095 458 ft 23 kts 357°
2026-05-08 19:58 54.57292 55.85055 458 ft 6 kts 330°
2026-05-08 19:59 54.57315 55.85009 458 ft 1 kts 279°
2026-05-08 19:59 54.57315 55.85008 458 ft 0 kts 276°
2026-05-08 20:00 54.57312 55.84987 458 ft 5 kts 250°
2026-05-08 20:00 54.57284 55.84967 458 ft 0 kts 149°
2026-05-08 20:01 54.57237 55.85015 458 ft 29 kts 150°
2026-05-08 20:01 54.56800 55.85435 458 ft 110 kts 152°
2026-05-08 20:01 54.55946 55.86266 510 ft 168 kts 153°
2026-05-08 20:01 54.54906 55.87239 1218 ft 175 kts 154°
2026-05-08 20:02 54.53825 55.88288 1954 ft 186 kts 152°
2026-05-08 20:02 54.52880 55.89852 2448 ft 206 kts 120°
2026-05-08 20:02 54.52690 55.92433 2858 ft 232 kts 77°
2026-05-08 20:02 54.53565 55.94756 3458 ft 244 kts 38°
2026-05-08 20:03 54.54993 55.96328 4220 ft 249 kts 33°
2026-05-08 20:03 54.56247 55.98394 4965 ft 255 kts 52°
2026-05-08 20:03 54.57326 56.00816 5848 ft 258 kts 52°
2026-05-08 20:03 54.58428 56.03264 6713 ft 262 kts 52°
2026-05-08 20:04 54.59533 56.05735 7547 ft 265 kts 52°
2026-05-08 20:04 54.60878 56.07891 8330 ft 269 kts 27°
2026-05-08 20:04 54.61170 56.08144 8464 ft 269 kts 21°
2026-05-08 20:04 54.63014 56.08555 9135 ft 273 kts 347°
2026-05-08 20:05 54.64753 56.07193 9574 ft 283 kts 319°
2026-05-08 20:05 54.66312 56.05083 10246 ft 294 kts 322°
2026-05-08 20:05 54.68131 56.03149 10527 ft 321 kts 328°
2026-05-08 20:05 54.70154 56.01189 10762 ft 348 kts 328°
2026-05-08 20:06 54.72329 55.99065 11368 ft 362 kts 328°
2026-05-08 20:06 54.74530 55.96926 12188 ft 370 kts 328°
2026-05-08 20:06 54.76676 55.94458 13047 ft 372 kts 315°
2026-05-08 20:06 54.78188 55.90971 13897 ft 370 kts 292°
2026-05-08 20:07 54.78745 55.86697 14778 ft 367 kts 270°
2026-05-08 20:07 54.78759 55.82233 15672 ft 372 kts 269°
2026-05-08 20:07 54.78883 55.77867 16485 ft 377 kts 272°
2026-05-08 20:07 54.79048 55.73307 17310 ft 381 kts 271°
2026-05-08 20:08 54.79184 55.68722 18107 ft 385 kts 271°
2026-05-08 20:08 54.79308 55.64068 18887 ft 390 kts 271°
2026-05-08 20:08 54.79433 55.59368 19643 ft 394 kts 271°
2026-05-08 20:08 54.79558 55.54565 20382 ft 398 kts 271°
2026-05-08 20:09 54.79679 55.49793 21086 ft 402 kts 271°
2026-05-08 20:09 54.79798 55.44975 21762 ft 406 kts 271°
2026-05-08 20:09 54.79918 55.40071 22429 ft 410 kts 271°
2026-05-08 20:09 54.80037 55.35121 23072 ft 414 kts 271°
2026-05-08 20:10 54.80155 55.30110 23710 ft 417 kts 270°
2026-05-08 20:10 54.80271 55.25074 24322 ft 421 kts 270°
2026-05-08 20:10 54.80385 55.20055 24908 ft 424 kts 270°
2026-05-08 20:10 54.80501 55.14872 25485 ft 428 kts 270°
2026-05-08 20:11 54.80612 55.09775 26035 ft 432 kts 270°
2026-05-08 20:11 54.80723 55.04580 26555 ft 435 kts 271°
2026-05-08 20:11 54.80834 54.99288 27063 ft 439 kts 271°
2026-05-08 20:11 54.80942 54.94018 27545 ft 443 kts 271°
2026-05-08 20:12 54.81050 54.88631 28059 ft 446 kts 271°
2026-05-08 20:12 54.81155 54.83282 28535 ft 449 kts 271°
2026-05-08 20:12 54.81258 54.77967 29327 ft 443 kts 271°
2026-05-08 20:12 54.81358 54.72623 29981 ft 441 kts 271°
2026-05-08 20:13 54.81455 54.67371 30561 ft 440 kts 271°
2026-05-08 20:13 54.81550 54.62048 31159 ft 438 kts 271°
2026-05-08 20:13 54.81641 54.56842 31716 ft 436 kts 271°
2026-05-08 20:13 54.81730 54.51603 32235 ft 435 kts 271°
2026-05-08 20:14 54.81817 54.46373 32739 ft 434 kts 271°
2026-05-08 20:14 54.81901 54.41170 33222 ft 432 kts 271°
2026-05-08 20:14 54.81982 54.36005 33666 ft 432 kts 271°
2026-05-08 20:14 54.82062 54.30777 33813 ft 436 kts 270°
2026-05-08 20:15 54.82361 54.20306 33804 ft 433 kts 275°
2026-05-08 20:15 54.83620 54.10143 33804 ft 432 kts 283°
2026-05-08 20:16 54.85120 54.00114 33804 ft 433 kts 283°
2026-05-08 20:16 54.86623 53.89973 33813 ft 433 kts 283°
2026-05-08 20:17 54.88140 53.79891 33825 ft 434 kts 283°
2026-05-08 20:17 54.89661 53.69758 33831 ft 434 kts 283°
2026-05-08 20:18 54.91185 53.59592 33831 ft 435 kts 283°
2026-05-08 20:18 54.92704 53.49465 33830 ft 435 kts 284°
2026-05-08 20:19 54.94217 53.39325 33830 ft 436 kts 284°
2026-05-08 20:19 54.95733 53.29093 33831 ft 437 kts 283°
2026-05-08 20:20 54.97239 53.18847 33831 ft 437 kts 283°
2026-05-08 20:20 54.98719 53.08671 33830 ft 437 kts 283°
2026-05-08 20:21 55.00205 52.98370 33831 ft 438 kts 283°
2026-05-08 20:21 55.01679 52.88086 33831 ft 440 kts 284°
2026-05-08 20:22 55.03147 52.77785 33830 ft 440 kts 284°
2026-05-08 20:22 55.04633 52.67318 33831 ft 451 kts 284°
2026-05-08 20:23 55.06150 52.56585 33830 ft 462 kts 284°
2026-05-08 20:23 55.07673 52.45709 33830 ft 462 kts 284°
2026-05-08 20:24 55.09172 52.34920 33830 ft 460 kts 283°
2026-05-08 20:24 55.10676 52.24036 33831 ft 461 kts 283°
2026-05-08 20:25 55.12161 52.13158 33831 ft 461 kts 283°
2026-05-08 20:25 55.13636 52.02315 33831 ft 461 kts 283°
2026-05-08 20:26 55.15109 51.91443 33831 ft 461 kts 283°
2026-05-08 20:26 55.16574 51.80501 33831 ft 461 kts 283°
2026-05-08 20:27 55.18018 51.69641 33831 ft 461 kts 283°
2026-05-08 20:27 55.19460 51.58741 33831 ft 460 kts 283°
2026-05-08 20:28 55.20896 51.47815 33831 ft 461 kts 283°
2026-05-08 20:28 55.22308 51.36970 33831 ft 460 kts 283°
2026-05-08 20:29 55.23716 51.26045 33831 ft 461 kts 282°
2026-05-08 20:29 55.25125 51.15046 33831 ft 460 kts 283°
2026-05-08 20:30 55.26511 51.04145 33831 ft 461 kts 283°
2026-05-08 20:30 55.27861 50.93182 33831 ft 464 kts 282°
2026-05-08 20:31 55.29138 50.82108 33849 ft 467 kts 282°
2026-05-08 20:31 55.30424 50.70947 33900 ft 465 kts 283°
2026-05-08 20:32 55.31697 50.59861 33940 ft 465 kts 283°
2026-05-08 20:32 55.32966 50.48740 33939 ft 465 kts 283°
2026-05-08 20:33 55.34218 50.37619 33939 ft 465 kts 283°
2026-05-08 20:33 55.35456 50.26562 33938 ft 465 kts 282°
2026-05-08 20:34 55.36688 50.15448 33939 ft 465 kts 282°
2026-05-08 20:35 55.38529 49.98663 33938 ft 465 kts 282°
2026-05-08 20:35 55.39275 49.87458 33939 ft 466 kts 275°
2026-05-08 20:36 55.39755 49.76106 33938 ft 466 kts 276°
2026-05-08 20:36 55.40288 49.64725 33939 ft 465 kts 276°
2026-05-08 20:37 55.40815 49.53392 33939 ft 467 kts 276°
2026-05-08 20:37 55.41333 49.42083 33939 ft 466 kts 276°
2026-05-08 20:38 55.41848 49.30728 33939 ft 466 kts 275°
2026-05-08 20:38 55.42362 49.19322 33939 ft 467 kts 275°
2026-05-08 20:39 55.42853 49.08020 33939 ft 466 kts 276°
2026-05-08 20:39 55.43337 48.96591 33939 ft 469 kts 277°
2026-05-08 20:40 55.43811 48.85144 33939 ft 470 kts 277°
2026-05-08 20:40 55.44298 48.73689 33939 ft 469 kts 277°
2026-05-08 20:41 55.44767 48.62285 33939 ft 470 kts 277°
2026-05-08 20:41 55.45856 48.51066 33941 ft 465 kts 289°
2026-05-08 20:42 55.47733 48.40123 33939 ft 465 kts 289°
2026-05-08 20:42 55.49539 48.29218 33939 ft 465 kts 289°
2026-05-08 20:43 55.51385 48.18331 33952 ft 465 kts 289°
2026-05-08 20:43 55.53232 48.07463 33991 ft 465 kts 289°
2026-05-08 20:44 55.55086 47.96511 34020 ft 465 kts 289°
2026-05-08 20:44 55.56918 47.85660 34020 ft 465 kts 289°
2026-05-08 20:45 55.58761 47.74685 34020 ft 465 kts 289°
2026-05-08 20:45 55.60580 47.63767 34020 ft 464 kts 289°
2026-05-08 20:46 55.62390 47.52832 34020 ft 465 kts 289°
2026-05-08 20:46 55.64208 47.41830 34020 ft 465 kts 289°
2026-05-08 20:47 55.65912 47.31438 34020 ft 465 kts 288°
2026-05-08 20:47 55.67691 47.20484 34020 ft 465 kts 288°
2026-05-08 20:48 55.69466 47.09519 34020 ft 465 kts 288°
2026-05-08 20:48 55.71230 46.98557 34020 ft 465 kts 289°
2026-05-08 20:49 55.72994 46.87540 34019 ft 463 kts 289°
2026-05-08 20:49 55.74712 46.76730 34020 ft 461 kts 290°
2026-05-08 20:49 55.75550 46.71416 33710 ft 445 kts 290°
2026-05-08 20:50 55.76381 46.66140 32430 ft 448 kts 290°
2026-05-08 20:50 55.77232 46.60795 30378 ft 464 kts 289°
2026-05-08 20:50 55.78099 46.55317 28492 ft 471 kts 289°
2026-05-08 20:50 55.78876 46.49710 26525 ft 479 kts 285°
2026-05-08 20:51 55.79361 46.43828 24604 ft 481 kts 278°
2026-05-08 20:51 55.79569 46.38023 23369 ft 469 kts 276°
2026-05-08 20:51 55.79760 46.32424 21995 ft 460 kts 276°
2026-05-08 20:51 55.79977 46.26837 20668 ft 450 kts 276°
2026-05-08 20:52 55.80179 46.21475 19345 ft 441 kts 276°
2026-05-08 20:52 55.80353 46.16530 18125 ft 433 kts 275°
2026-05-08 20:52 55.80541 46.11056 16756 ft 424 kts 275°
2026-05-08 20:52 55.80715 46.05893 15445 ft 416 kts 275°
2026-05-08 20:53 55.80878 46.00842 14152 ft 409 kts 275°
2026-05-08 20:53 55.81034 45.95846 12861 ft 401 kts 274°
2026-05-08 20:53 55.81181 45.90991 11599 ft 394 kts 274°
2026-05-08 20:53 55.81314 45.86519 10436 ft 387 kts 274°
2026-05-08 20:54 55.81456 45.81677 9157 ft 379 kts 274°
2026-05-08 20:54 55.81590 45.77033 8092 ft 368 kts 275°
2026-05-08 20:54 55.81713 45.72686 7942 ft 358 kts 275°
2026-05-08 20:54 55.81838 45.68288 8044 ft 372 kts 275°
2026-05-08 20:55 55.81950 45.64214 8037 ft 375 kts 274°
2026-05-08 20:55 55.82078 45.59482 8046 ft 376 kts 274°
2026-05-08 20:55 55.82180 45.55676 8055 ft 376 kts 274°
2026-05-08 20:55 55.82320 45.50341 8072 ft 374 kts 274°
2026-05-08 20:56 55.82438 45.45804 8086 ft 373 kts 274°
2026-05-08 20:56 55.82556 45.41195 8100 ft 372 kts 274°
2026-05-08 20:56 55.82672 45.36609 8109 ft 377 kts 274°
2026-05-08 20:56 55.82773 45.32526 8117 ft 371 kts 274°
2026-05-08 20:57 55.82886 45.27903 8125 ft 371 kts 274°
2026-05-08 20:57 55.82928 45.26200 8080 ft 367 kts 274°
2026-05-08 20:57 55.83030 45.21891 7473 ft 357 kts 273°
2026-05-08 20:57 55.83134 45.17516 6159 ft 356 kts 274°
2026-05-08 20:58 55.83235 45.13210 4943 ft 352 kts 274°
2026-05-08 20:58 55.83638 45.08976 4098 ft 350 kts 289°
2026-05-08 20:58 55.84662 45.05203 4100 ft 334 kts 304°
2026-05-08 20:58 55.86172 45.02275 4121 ft 315 kts 323°
2026-05-08 20:59 55.87986 45.00437 4032 ft 299 kts 338°
2026-05-08 20:59 55.89877 44.99475 3987 ft 274 kts 352°
2026-05-08 20:59 55.91654 44.99400 3992 ft 249 kts
2026-05-08 20:59 55.93346 44.99932 3997 ft 243 kts 10°
2026-05-08 21:00 55.94995 45.00501 3995 ft 246 kts 10°
2026-05-08 21:00 55.96643 45.01067 3993 ft 243 kts 10°
2026-05-08 21:00 55.98313 45.01436 3989 ft 242 kts 355°
2026-05-08 21:00 55.99858 45.00333 3995 ft 242 kts 319°
2026-05-08 21:01 56.00709 44.97801 3999 ft 247 kts 286°
2026-05-08 21:01 56.00876 44.94741 3993 ft 249 kts 274°
2026-05-08 21:01 56.00965 44.91655 3989 ft 248 kts 275°
2026-05-08 21:01 56.01060 44.88564 3991 ft 247 kts 275°
2026-05-08 21:02 56.01144 44.85537 3994 ft 247 kts 275°
2026-05-08 21:02 56.01226 44.82470 3992 ft 247 kts 275°
2026-05-08 21:02 56.01306 44.79409 3991 ft 247 kts 275°
2026-05-08 21:02 56.01386 44.76324 3992 ft 247 kts 275°
2026-05-08 21:03 56.01465 44.73229 3992 ft 247 kts 275°
2026-05-08 21:03 56.01538 44.70311 3992 ft 247 kts 275°
2026-05-08 21:03 56.01612 44.67313 3992 ft 247 kts 275°
2026-05-08 21:03 56.01688 44.64238 3992 ft 247 kts 275°
2026-05-08 21:04 56.01761 44.61223 3993 ft 247 kts 275°
2026-05-08 21:04 56.01835 44.58144 3928 ft 245 kts 275°
2026-05-08 21:04 56.01951 44.55172 3576 ft 245 kts 282°
2026-05-08 21:04 56.02406 44.52287 3261 ft 242 kts 290°
2026-05-08 21:05 56.02881 44.49427 2947 ft 242 kts 288°
2026-05-08 21:05 56.03321 44.46528 2661 ft 236 kts 287°
2026-05-08 21:05 56.03722 44.43822 2591 ft 213 kts 287°
2026-05-08 21:05 56.04083 44.41356 2593 ft 201 kts 287°
2026-05-08 21:06 56.04433 44.38950 2591 ft 200 kts 287°
2026-05-08 21:06 56.04778 44.36565 2592 ft 200 kts 287°
2026-05-08 21:06 56.05126 44.34149 2591 ft 200 kts 286°
2026-05-08 21:06 56.05471 44.31747 2593 ft 200 kts 286°
2026-05-08 21:07 56.05817 44.29325 2593 ft 200 kts 286°
2026-05-08 21:07 56.06143 44.27049 2593 ft 200 kts 286°
2026-05-08 21:07 56.06481 44.24685 2592 ft 200 kts 286°
2026-05-08 21:07 56.06829 44.22244 2593 ft 200 kts 286°
2026-05-08 21:08 56.07170 44.19848 2598 ft 197 kts 286°
2026-05-08 21:08 56.07511 44.17448 2591 ft 199 kts 286°
2026-05-08 21:08 56.07850 44.15061 2591 ft 200 kts 286°
2026-05-08 21:08 56.08191 44.12652 2592 ft 200 kts 286°
2026-05-08 21:09 56.08537 44.10211 2592 ft 200 kts 286°
2026-05-08 21:09 56.08875 44.07816 2592 ft 200 kts 286°
2026-05-08 21:09 56.09219 44.05379 2593 ft 200 kts 286°
2026-05-08 21:09 56.09550 44.03023 2595 ft 191 kts 286°
2026-05-08 21:10 56.09874 44.00720 2592 ft 190 kts 286°
2026-05-08 21:10 56.10195 43.98438 2600 ft 187 kts 286°
2026-05-08 21:10 56.10509 43.96198 2595 ft 181 kts 286°
2026-05-08 21:10 56.10802 43.94101 2593 ft 169 kts 287°
2026-05-08 21:11 56.11076 43.92144 2592 ft 159 kts 287°
2026-05-08 21:11 56.11325 43.90353 2531 ft 135 kts 287°
2026-05-08 21:11 56.11538 43.88826 2317 ft 133 kts 287°
2026-05-08 21:11 56.11773 43.87178 2410 ft 140 kts 287°
2026-05-08 21:12 56.12000 43.85519 2344 ft 128 kts 287°
2026-05-08 21:12 56.12214 43.84016 2025 ft 129 kts 287°
2026-05-08 21:12 56.12425 43.82436 2209 ft 131 kts 285°
2026-05-08 21:12 56.12636 43.80843 2509 ft 138 kts 292°
2026-05-08 21:13 56.13098 43.79375 2615 ft 136 kts 309°
2026-05-08 21:13 56.13737 43.78102 2406 ft 138 kts 316°
2026-05-08 21:13 56.14421 43.76984 2063 ft 131 kts 327°
2026-05-08 21:13 56.15276 43.76461 1783 ft 131 kts 349°
2026-05-08 21:14 56.16182 43.76450 1505 ft 132 kts
2026-05-08 21:14 56.17093 43.76597 1234 ft 130 kts
2026-05-08 21:14 56.17976 43.76739 1059 ft 129 kts 359°
2026-05-08 21:14 56.18872 43.76862 906 ft 129 kts
2026-05-08 21:15 56.19766 43.77033 640 ft 135 kts
2026-05-08 21:15 56.20663 43.77376 452 ft 131 kts
2026-05-08 21:15 56.21527 43.77692 318 ft 134 kts
2026-05-08 21:15 56.22372 43.77999 253 ft 116 kts 10°
2026-05-08 21:16 56.22957 43.78213 252 ft 56 kts 12°
2026-05-08 21:16 56.23195 43.78302 252 ft 20 kts 10°
2026-05-08 21:16 56.23326 43.78347 252 ft 18 kts 10°
2026-05-08 21:16 56.23436 43.78389 252 ft 17 kts
2026-05-08 21:17 56.23558 43.78428 252 ft 18 kts 11°
2026-05-08 21:17 56.23686 43.78466 252 ft 19 kts
2026-05-08 21:17 56.23828 43.78500 249 ft 22 kts
2026-05-08 21:17 56.23944 43.78550 249 ft 18 kts 15°
2026-05-08 21:18 56.24085 43.78623 249 ft 18 kts 19°
2026-05-08 21:18 56.24167 43.78773 249 ft 16 kts 98°
2026-05-08 21:18 56.24133 43.78952 249 ft 17 kts 111°
2026-05-08 21:18 56.24100 43.79115 249 ft 18 kts 112°
2026-05-08 21:19 56.24029 43.79260 256 ft 13 kts 155°
2026-05-08 21:19 56.23915 43.79271 256 ft 21 kts 181°
2026-05-08 21:19 56.23738 43.79248 252 ft 29 kts 179°
2026-05-08 21:19 56.23512 43.79236 255 ft 34 kts 183°
2026-05-08 21:20 56.23260 43.79154 252 ft 41 kts 192°
2026-05-08 21:20 56.22969 43.79034 257 ft 41 kts 193°
2026-05-08 21:20 56.22710 43.78942 250 ft 37 kts 190°
2026-05-08 21:20 56.22472 43.78856 252 ft 31 kts 191°
2026-05-08 21:21 56.22346 43.78817 252 ft 13 kts 137°
2026-05-08 21:21 56.22327 43.78963 252 ft 11 kts 104°
2026-05-08 21:21 56.22321 43.79011 253 ft 0 kts 103°